Regional Weather Roundup
Issued by NWS

Home | Current Version | Previous Version | Graphics & Text | Print | Product List | Glossary On
Versions: 1 2 3 4 5 6 7 8 9 10 11 12 13 14 15 16 17 18 19 20 21 22 23 24 25 26 27 28 29 30 31 32 33 34 35 36 37 38 39 40 41 42 43 44 45 46 47 48 49 50
000
ASUS45 KBOI 222210
RWRID

IDAHO REGIONAL WEATHER ROUNDUP
NATIONAL WEATHER SERVICE BOISE ID
400 PM MDT WED MAR 22 2017

NOTE: "FAIR" INDICATES FEW OR NO CLOUDS BELOW 12000 FEET
WITH NO SIGNIFICANT WEATHER AND/OR OBSTRUCTIONS TO VISIBILITY

IDZ012-014-222300-
SOUTHWEST IDAHO


CITY           SKY/WX    TMP DP  RH WIND       PRES   REMARKS
BOISE          MOSUNNY   59  27  29 VRB5      29.85F
CALDWELL       PTSUNNY   61  35  37 N3        29.85F
MOUNTAIN HOME  MOSUNNY   60  28  29 SW8       29.84F
$$

IDZ016-017-222300-
SOUTHCENTRAL IDAHO


CITY           SKY/WX    TMP DP  RH WIND       PRES   REMARKS
BURLEY         MOSUNNY   54  33  45 N6        29.85F
JEROME         LGT RAIN  51  36  56 NW10G21   29.88F
TWIN FALLS     LGT RAIN  46  38  73 NW14G22   29.88S
$$

IDZ019>023-222300-
SOUTHEAST IDAHO


CITY           SKY/WX    TMP DP  RH WIND       PRES   REMARKS
IDAHO FALLS    PTSUNNY   53  36  52 SW9       29.89S
POCATELLO      MOSUNNY   54  38  54 VRB5      29.89F
REXBURG        CLOUDY    51  32  48 S7        29.87F
$$

IDZ006-010-011-018-031-032-222300-
CENTRAL IDAHO MOUNTAINS


CITY           SKY/WX    TMP DP  RH WIND       PRES   REMARKS
MCCALL         LGT RAIN  40  32  73 CALM      29.87S
HAILEY         MOSUNNY   50  28  43 W6        29.90F
STANLEY          N/A     43  24  47 N3        29.88F
SALMON         CLOUDY    55  30  38 NW6       29.80F
CHALLIS        CLOUDY    54  23  30 CALM      29.82F
$$

IDZ002-004-006-007-026-222300-
NORTHERN IDAHO


CITY           SKY/WX    TMP DP  RH WIND       PRES   REMARKS
LEWISTON       CLOUDY    53  43  68 NW14G22   29.86R
LOWELL           N/A     51  46  83 CALM      29.82F
COEUR D`ALENE  LGT RAIN  47  42  83 S3        29.84R
MULLAN PASS    LGT SNOW  33  32  96 SW3       29.82F FOG
$$



USA.gov is the U.S. government's official web portal to all federal, state and local government web resources and services.